RH
100 78 76 60 55 52 45 43 27 35 27 21 14 11 25 19 14 15 16 21 13 13 18 18 18 16 19 21 21 22 16 15 16
100 85 80 68 51 58 50 43 44 35 29 22 18 12 25 22 17 17 14 17 16 11 16 19 19 17 19 20 21 22 23 18 16
100 100 97 73 62 40 49 34 49 34 29 20 18 15 24 24 18 20 16 17 17 11 15 19 18 19 20 21 20 20 22 20 19
100 80 76 78 54 48 52 73 51 35 25 20 18 16 23 26 20 18 22 14 15 13 14 18 20 19 20 22 21 21 22 24 20
94 100 100 86 52 50 74 71 46 30 24 20 18 24 19 31 21 22 26 18 14 15 13 18 20 20 21 21 22 23 25 24 21
100 98 85 58 86 87 90 69 39 29 24 22 19 29 19 24 23 21 24 26 14 13 12 18 20 20 18 17 17 18 21 23 20
100 97 96 100 95 87 86 58 34 29 24 28 23 28 22 26 25 22 26 28 17 11 11 14 19 19 18 19 19 19 19 21 18
100 100 97 100 81 72 72 51 37 44 25 26 25 34 32 26 26 25 25 24 23 12 11 12 17 20 19 19 19 19 20 21 20
100 96 100 89 97 88 69 49 51 42 29 27 37 42 32 26 28 26 28 30 22 14 10 11 14 18 20 21 21 20 20 21 21
86 98 100 100 93 74 60 48 52 38 34 28 46 47 31 32 25 28 29 26 25 20 12 10 11 14 17 19 20 20 20 20 21
88 100 100 100 90 65 53 56 60 52 35 29 45 53 36 37 27 32 33 30 25 22 19 12 11 11 12 13 15 16 18 18 20
100 100 100 100 89 68 57 99 62 62 51 38 47 62 43 46 32 33 36 34 27 23 25 18 13 12 11 11 12 14 15 16 16
100 100 100 99 80 57 81 100 61 60 68 54 57 57 50 44 37 37 38 37 26 26 23 23 18 17 14 14 13 13 14 16 16
89 100 100 96 60 90 100 100 80 89 67 69 49 57 57 45 40 44 35 33 33 27 26 23 23 18 14 14 14 15 15 16 16
100 100 98 70 73 100 100 100 87 80 76 71 60 50 46 42 52 51 46 38 37 31 31 24 24 22 19 15 14 16 16 17 18
100 100 82 69 80 100 100 100 100 92 71 70 71 53 47 47 59 60 52 50 40 33 31 28 27 32 30 21 19 16 17 18 20
92 98 94 69 76 100 100 100 93 92 98 81 53 45 34 55 63 57 61 50 40 35 32 35 30 36 37 36 27 25 27 24 25
100 100 100 98 100 100 100 87 100 96 91 83 60 32 35 51 73 56 56 54 43 41 39 33 36 40 42 40 38 36 35 33 33
100 100 100 100 100 100 99 100 100 89 85 70 59 35 48 63 64 55 57 57 45 42 37 37 44 53 45 46 46 46 46 45 42
100 100 100 100 100 100 100 100 100 100 88 75 40 49 63 70 67 59 62 54 47 46 39 41 52 70 54 49 55 56 54 53 50
Wind_Speed
41 44 38 40 42 45 46 50 54 51 55 61 61 58 64 57 50 41 41 32 26 25 22 22 20 18 13 13 13 15 14 15 14
44 48 44 44 49 46 51 49 50 55 55 55 60 61 63 65 53 50 44 35 27 26 24 22 22 19 16 14 14 13 14 15 17
44 41 45 46 45 52 56 59 52 54 54 53 58 58 62 67 57 52 48 40 27 27 26 24 23 20 19 18 16 15 16 17 17
50 50 51 47 49 53 56 52 53 54 51 55 60 57 60 65 56 52 49 42 30 26 26 26 25 23 21 20 18 18 18 19 20
51 51 48 51 55 51 50 51 50 51 54 57 55 55 63 65 58 56 51 42 29 26 27 26 25 24 20 18 18 20 21 21 22
53 55 53 53 48 48 51 50 50 52 54 55 58 57 61 63 59 61 52 47 31 24 28 27 27 25 21 19 19 19 20 21 22
53 56 47 47 49 52 48 52 50 55 49 51 56 59 60 64 64 62 57 54 35 26 28 29 30 30 27 24 24 24 23 22 21
55 50 48 47 53 54 45 47 52 48 50 54 55 58 61 64 67 62 62 53 40 29 29 30 33 34 35 32 31 29 27 26 24
57 53 51 54 53 47 47 53 42 51 50 56 53 56 60 63 66 67 67 64 45 28 29 32 35 38 40 40 39 37 33 32 31
59 57 54 54 56 50 49 49 46 51 51 57 53 57 62 61 69 68 71 64 51 32 28 31 36 40 43 43 44 43 40 38 38
57 54 58 55 54 50 48 48 46 51 56 56 53 56 62 63 67 68 69 66 62 39 29 31 34 38 42 43 45 46 45 44 44
58 63 60 55 50 55 49 47 49 53 56 57 55 55 62 65 67 70 69 69 64 47 35 32 35 39 42 43 45 46 45 45 46
64 60 59 55 50 52 49 51 56 56 57 57 58 59 62 66 68 69 69 69 69 54 41 35 36 39 40 43 45 46 47 48 48
59 57 60 59 56 56 55 56 59 59 60 59 60 60 64 67 70 69 71 68 73 67 52 39 35 36 39 42 44 46 47 49 51
62 63 60 60 54 61 59 60 64 64 63 60 60 62 66 69 70 70 71 71 74 73 59 47 39 33 34 40 42 46 49 50 52
64 63 62 57 54 65 62 66 68 66 67 61 62 66 67 66 72 71 72 73 75 73 67 55 45 40 34 36 42 44 47 51 54
63 67 64 60 58 66 66 64 69 69 68 63 64 68 67 67 73 72 73 75 75 78 75 57 50 45 38 38 38 43 47 51 54
69 71 67 64 63 69 66 68 69 72 70 67 68 71 66 70 71 74 74 76 79 78 76 65 52 49 45 40 38 37 40 45 48
71 69 70 68 66 66 69 70 73 73 73 69 71 74 67 72 72 73 75 75 79 79 76 66 54 51 49 47 44 42 42 41 42
75 73 71 67 69 70 70 73 75 74 74 72 75 70 68 71 72 74 73 77 75 78 78 67 57 51 53 50 52 50 49 50 51
Wind_Direction
277 281 286 292 302 305 306 311 312 316 322 325 331 333 338 347 350 342 332 324 295 283 282 283 278 283 289 305 307 302 293 274 258
272 279 282 289 295 303 305 305 305 312 316 321 329 333 338 345 349 350 329 321 299 275 273 274 276 275 282 292 296 300 299 287 274
269 275 282 287 293 298 300 302 306 311 318 327 330 334 336 342 347 343 332 318 298 272 268 269 270 267 275 283 291 294 296 290 283
265 276 279 284 286 294 296 297 299 311 321 329 331 332 337 339 345 345 342 321 305 266 261 267 268 265 267 275 281 289 293 294 285
265 269 280 286 283 287 291 293 304 313 321 323 329 333 337 337 345 348 347 331 313 267 258 259 265 262 261 271 278 287 293 295 291
259 267 279 280 279 284 287 293 301 310 318 326 327 333 335 341 344 347 346 342 318 278 255 256 259 256 253 262 275 286 291 291 291
258 266 269 269 276 285 287 290 303 306 321 324 326 330 334 336 342 348 350 350 324 300 257 256 257 255 255 261 270 277 285 288 286
254 263 268 273 280 281 288 295 300 312 322 322 324 327 333 334 341 346 347 345 337 304 270 260 257 258 259 263 269 275 277 282 283
256 263 265 271 275 283 292 294 302 307 318 319 321 322 328 333 338 343 347 347 342 307 281 266 262 261 262 265 269 273 276 277 279
253 258 264 271 274 284 288 296 300 303 314 315 319 321 324 331 334 340 343 345 343 322 283 269 267 264 263 266 270 271 273 274 277
252 254 264 268 273 278 287 293 296 298 309 309 316 316 319 326 330 337 341 342 344 328 304 274 265 265 265 266 267 269 272 273 274
246 256 263 268 275 282 284 284 298 295 301 306 312 313 316 317 327 333 338 341 343 332 316 293 274 267 267 266 264 265 268 270 271
250 253 261 266 274 284 278 281 294 293 296 303 307 311 314 317 323 331 336 338 342 336 320 305 286 273 269 268 266 265 266 268 270
247 253 256 262 272 274 270 281 288 286 296 298 304 309 309 315 318 326 331 336 338 339 326 313 297 285 276 272 270 268 266 268 269
246 247 256 261 270 272 269 275 285 285 293 295 300 304 308 313 316 322 327 332 335 340 332 317 309 297 287 276 273 269 267 267 268
246 250 257 264 266 263 266 277 280 284 288 293 296 302 305 310 312 320 324 329 332 334 333 323 315 311 309 292 273 271 270 269 269
249 251 256 261 263 259 270 275 277 283 284 291 293 300 304 305 310 317 322 327 330 332 335 322 314 314 307 311 295 278 272 271 272
246 249 251 255 258 259 268 274 275 277 283 287 292 300 302 304 310 316 320 324 327 329 330 324 314 312 309 303 305 301 291 283 280
243 246 249 255 256 260 267 268 271 276 282 286 291 299 299 302 306 313 318 321 326 326 328 320 311 310 308 301 299 301 301 299 297
246 248 252 253 258 262 263 267 272 277 280 284 292 293 296 301 307 311 316 317 322 324 327 320 310 307 308 300 294 293 292 293 294